Content
SEND FEEDBACK

Daily
Averages
Monthly
Summary
United States of America

ANN ARBOR, MICHIGAN


Home > North America > United States > Michigan
Elevation: 759 feet     Latitude: 42 17N     Longitude: 083 43W

WEATHER
 
SELECT A DAY
Number of Records: 203,193;   Date Range: 1/1/95 - 7/23/14
 
SHARE

PRINT THIS DATA

[ ← Previous Day ]
WEATHER ALMANAC - APRIL 6, 2013
[ Next Day → ]
[ °C ]   °F
Weather ElementAverageHighLow
Temperature41.1 °F52 °F (4:53 pm)30 °F (1:53 am)
Dewpoint21.4 °F28 °F (9:53 pm)17.1 °F (4:53 am)
Humidity47 %66 % (1:53 am)30 % (1:53 pm)
Barometer30.10 in30.26 in (8:53 am)29.80 in (11:53 pm)
Wind Speed10.1 mph16.1 mph (11:53 am)
Wind Gust23 mph (11:53 am)
Weather ElementAverage
Visibility10 mi
Wind DirectionSE (132.2 °)

Weather ElementTotal
Precipitation---
Heating Degree Days24 (Base 65)
Averaged from 23 records on April 6, 2013
WEATHER CONDITIONS BREAKOUT
WIND DIRECTION BREAKOUT
WEATHER BY HOUR - APRIL 6, 2013
[ °C ]   °F
Local TimeTemperatureDewpointHumidityBarometerVisibilityWind DirectionWind SpeedGust SpeedPrecipitationEventsConditions
1:53 AM30.0 °F19.9 °F66 %30.23 in10.0 miEast (100°)4.6 mphClear
2:53 AM30.0 °F19.0 °F64 %30.23 in10.0 miEast (100°)3.5 mphClear
3:53 AM30.9 °F19.0 °F61 %30.23 in10.0 miEast (100°)5.8 mphOvercast
4:53 AM32.0 °F17.1 °F54 %30.23 in10.0 miEast (100°)5.8 mphOvercast
5:53 AM32.0 °F17.1 °F54 %30.24 in10.0 miESE (110°)9.2 mphOvercast
6:53 AM32.0 °F17.1 °F54 %30.25 in10.0 miESE (110°)4.6 mphOvercast
7:53 AM33.1 °F19.0 °F56 %30.25 in10.0 miEast (100°)6.9 mphOvercast
8:53 AM34.0 °F21.0 °F59 %30.26 in10.0 miSE (140°)6.9 mphOvercast
9:53 AM36.0 °F21.0 °F55 %30.25 in10.0 miSE (140°)11.5 mphOvercast
10:53 AM39.9 °F21.9 °F49 %30.22 in10.0 miSE (140°)12.7 mph20.7 mphMostly Cloudy
11:53 AM42.1 °F17.1 °F37 %30.22 in10.0 miSE (140°)16.1 mph23.0 mphPartly Cloudy
12:53 PM44.1 °F17.1 °F34 %30.18 in10.0 miSSE (150°)16.1 mph20.7 mphClear
1:53 PM48.0 °F18.0 °F30 %30.13 in10.0 miSSE (150°)13.8 mph21.9 mphClear
2:53 PM48.9 °F19.9 °F32 %30.09 in10.0 miSSE (160°)13.8 mph23.0 mphClear
3:53 PM51.1 °F21.0 °F31 %30.04 in10.0 miSSE (150°)12.7 mphScattered Clouds
4:53 PM52.0 °F23.0 °F32 %29.99 in10.0 miSE (140°)13.8 mph21.9 mphClear
5:53 PM50.0 °F24.1 °F36 %29.96 in10.0 miSSE (150°)13.8 mph20.7 mphClear
6:53 PM48.9 °F25.0 °F39 %29.93 in10.0 miSSE (150°)13.8 mph21.9 mphPartly Cloudy
7:53 PM46.9 °F26.1 °F44 %29.92 in10.0 miSE (140°)10.4 mphClear
8:53 PM45.0 °F27.0 °F49 %29.91 in10.0 miSE (130°)9.2 mphClear
9:53 PM45.0 °F28.0 °F52 %29.87 in10.0 miSE (140°)10.4 mphClear
10:53 PM45.0 °F28.0 °F52 %29.84 in10.0 miSSE (150°)8.1 mphScattered Clouds
11:53 PM48.0 °F26.1 °F42 %29.80 in10.0 miSSE (150°)8.1 mphMostly Cloudy
Hourly data recorded from KARB, located miles away from Ann Arbor, Michigan







STORIES FROM OUR PARTNERS